Pensacola, FL

10:04 AM CST on November 21, 2017 (GMT -0600)
Pensacola Regional

Weather History for KPNS - May, 2013

Change the Weather History Date:

Monday, May 20, 2013

  Actual Average Record
Temperature  
Mean Temperature 79 °F 76 °F  
Max Temperature 86 °F 84 °F 95 °F (1962)
Min Temperature 72 °F 67 °F 48 °F (1894)
Cooling Degree Days 14 11  
Month to date cooling degree days 117 165  
Year to date cooling degree days 286 313  
Growing Degree Days 28 (Base 50)    
Moisture  
Dew Point 71 °F    
Average Humidity 76    
Maximum Humidity 93    
Minimum Humidity 59    
Precipitation  
Precipitation 0.01 in 0.13 in 2.76 in (1946)
Month to date precipitation 1.63 2.62  
Year to date precipitation 22.05 22.44  
Sea Level Pressure  
Sea Level Pressure 30.02 in    
Wind  
Wind Speed 8 mph (South)    
Max Wind Speed 14 mph    
Max Gust Speed -    
Visibility 10 miles    
Events      
T = Trace of Precipitation, MM = Missing Value Source: NWS Daily Summary

Daily Weather History Graph

Daily Weather History Graph

Search for Another Location

Airport or City:

Trip Planner

Search our weather history database for the weather conditions in past years. The results will help you decide how hot, cold, wet, or windy it might be!

Date:

Astronomy

May. 20, 2013 Rise Set
Actual Time 5:51 AM CDT 7:39 PM CDT
Civil Twilight 5:24 AM CDT 8:06 PM CDT
Nautical Twilight 4:52 AM CDT 8:38 PM CDT
Astronomical Twilight 4:18 AM CDT 9:12 PM CDT
Moon 3:04 PM CDT (5/20) 2:25 AM CDT (5/20)
Length of Visible Light 14h 41m
Length of Day
13h 48m
Waxing Gibbous, 75% of the Moon is Illuminated
May 20
Waxing Gibbous
May 24
Full
May 31
Last Quarter
Jun 8
New
Jun 16
First Quarter

Hourly Weather History & Observations

Time (CDT) Temp. Heat Index Dew Point Humidity Pressure Visibility Wind Dir Wind Speed Gust Speed Precip Events Conditions
12:53 AM 73.0 °F - 70.0 °F 90% 30.06 in 10.0 mi South 4.6 mph - N/A   Clear
1:53 AM 72.0 °F - 70.0 °F 93% 30.04 in 10.0 mi SSE 3.5 mph - N/A   Clear
2:53 AM 71.6 °F - 69.8 °F 94% 30.01 in 10.0 mi South 6.9 mph - N/A   Clear
3:53 AM 73.9 °F - 71.1 °F 91% 29.99 in 10.0 mi SSW 8.1 mph - N/A   Clear
4:53 AM 73.9 °F - 71.1 °F 91% 29.99 in 10.0 mi SSW 5.8 mph - N/A   Clear
5:53 AM 73.0 °F - 71.1 °F 93% 29.99 in 8.0 mi SW 5.8 mph - N/A   Clear
6:53 AM 73.9 °F - 72.0 °F 93% 30.01 in 8.0 mi SW 5.8 mph - N/A   Clear
7:09 AM 75.2 °F - 71.6 °F 89% 30.01 in 9.0 mi SW 8.1 mph - N/A   Partly Cloudy
7:53 AM 77.0 °F - 71.1 °F 82% 30.04 in 10.0 mi Calm Calm - N/A   Partly Cloudy
8:53 AM 80.1 °F 82.9 °F 69.1 °F 69% 30.05 in 10.0 mi South 4.6 mph - N/A   Clear
9:53 AM 82.0 °F 85.9 °F 70.0 °F 67% 30.06 in 10.0 mi SSE 8.1 mph - N/A   Clear
10:53 AM 82.9 °F 87.0 °F 70.0 °F 65% 30.07 in 10.0 mi ESE 8.1 mph - N/A   Clear
11:53 AM 84.9 °F 88.2 °F 68.0 °F 57% 30.06 in 10.0 mi South 8.1 mph - N/A   Clear
12:53 PM 82.9 °F 87.5 °F 71.1 °F 67% 30.06 in 10.0 mi SE 11.5 mph - N/A   Clear
1:53 PM 82.9 °F 87.5 °F 71.1 °F 67% 30.05 in 10.0 mi SSE 13.8 mph - N/A   Partly Cloudy
2:53 PM 82.9 °F 87.0 °F 70.0 °F 65% 30.04 in 10.0 mi South 12.7 mph - N/A   Partly Cloudy
3:53 PM 82.4 °F 86.3 °F 69.8 °F 66% 30.02 in 10.0 mi South 11.5 mph - N/A   Clear
4:53 PM 82.9 °F 87.5 °F 71.1 °F 67% 30.01 in 10.0 mi SSW 13.8 mph - N/A   Clear
5:53 PM 81.0 °F 84.4 °F 70.0 °F 69% 30.00 in 10.0 mi South 11.5 mph - N/A   Clear
6:53 PM 79.0 °F - 70.0 °F 74% 29.99 in 10.0 mi South 9.2 mph - N/A   Clear
7:53 PM 75.9 °F - 71.1 °F 85% 29.99 in 10.0 mi South 6.9 mph - N/A   Clear
8:53 PM 75.2 °F - 71.6 °F 89% 29.99 in 10.0 mi South 5.8 mph - N/A   Clear
9:53 PM 73.9 °F - 71.1 °F 91% 30.01 in 10.0 mi South 4.6 mph - N/A   Clear
10:53 PM 75.0 °F - 71.1 °F 87% 30.01 in 10.0 mi SSW 4.6 mph - 0.01 in   Clear
11:53 PM 75.0 °F - 71.1 °F 87% 30.01 in 10.0 mi South 4.6 mph - N/A   Clear